NRCO2: Canadian River at Norman, OK

Data processed at Sat 16Apr2022 04:32


All information presented herein is the property of the government of the United States of America and may be revised or deleted at any time without prior notice.
Dissemination of this information without the expressed written consent of the Public Affairs Office, Tulsa District U.S. Army Corps of Engineers is strictly prohibited.
These data are gathered electronically and, as presented, have not undergone any form of quality control. These data are not guaranteed to be valid or correct.
Go to home page.
Go to station list.


Previous Day
Next Day
Current Day


    
SHEF ID:       NRCO2     Canadian River at Norman, OK
STATION TYPE:  

                STAGE  RIV-FLOW  BAT-LOAD
                   ft       cfs      volt
              Ccp-Rev   Ccp-Rev   Ccp-Rev
(US/Central)
04/15 00:00     87.01       211     12.57
04/15 01:00     87.00       207     12.49
04/15 02:00     87.03       219     12.49
04/15 03:00     87.01       211     12.41
04/15 04:00     86.99       203     12.41
04/15 05:00     86.96       192     12.41
04/15 06:00     86.97       195     12.41
04/15 07:00     86.99       203     12.33
04/15 08:00     87.00       207     12.33
04/15 09:00     86.96       192     12.41
04/15 10:00     86.95       188     12.49
04/15 11:00     86.97       195     12.65
04/15 12:00     86.99       203     13.37
04/15 13:00     86.94       184     13.68
04/15 14:00     86.95       188     13.60
04/15 15:00     86.95       188     13.29
04/15 16:00     86.99       203     13.21
04/15 17:00     86.99       203     13.13
04/15 18:00     86.99       203     13.05
04/15 19:00     86.98       199     12.97
04/15 20:00     87.01       211     12.73
04/15 21:00     87.02       215     12.65
04/15 22:00     87.03       219     12.65
04/15 23:00     87.03       219     12.57